AWQ506 WADD-WSSS

Flight info

Callsign AWQ506
Flight time N/A
Altitude 33998
Route BORGI DCT UDONO M635 SURGA T23 UGEBO UGEBO1B
Aircraft A320/M-SDE3FGHIRWY/LB1

Departure

Time N/A
Airport Denpasar I Gusti Ngurah Rai International Airport (WADD)

Arrival

Time 2026-05-05 12:32
Airport Singapore Changi Airport (WSSS)
Time Latitude Longitude Altitude Speed Heading
2026-05-05 11:00 -4.81022 111.47892 33847 ft 456 kts 308°
2026-05-05 11:00 -4.79082 111.45381 33846 ft 456 kts 308°
2026-05-05 11:01 -4.75197 111.40364 33842 ft 455 kts 309°
2026-05-05 11:01 -4.71305 111.35348 33842 ft 456 kts 309°
2026-05-05 11:02 -4.67418 111.30323 33840 ft 455 kts 309°
2026-05-05 11:02 -4.63538 111.25307 33839 ft 456 kts 309°
2026-05-05 11:03 -4.59651 111.20288 33838 ft 456 kts 309°
2026-05-05 11:03 -4.55778 111.15262 33836 ft 455 kts 308°
2026-05-05 11:04 -4.51918 111.10238 33831 ft 455 kts 308°
2026-05-05 11:04 -4.48054 111.05223 33826 ft 454 kts 308°
2026-05-05 11:05 -4.44190 111.00218 33822 ft 454 kts 308°
2026-05-05 11:05 -4.40360 110.95248 33815 ft 454 kts 308°
2026-05-05 11:06 -4.36500 110.90235 33813 ft 454 kts 308°
2026-05-05 11:06 -4.32636 110.85228 33816 ft 454 kts 308°
2026-05-05 11:07 -4.28769 110.80217 33819 ft 454 kts 308°
2026-05-05 11:07 -4.24908 110.75206 33823 ft 455 kts 308°
2026-05-05 11:08 -4.21040 110.70184 33828 ft 455 kts 308°
2026-05-05 11:08 -4.17171 110.65177 33831 ft 454 kts 309°
2026-05-05 11:09 -4.13301 110.60172 33822 ft 454 kts 309°
2026-05-05 11:09 -4.09441 110.55170 33819 ft 454 kts 309°
2026-05-05 11:10 -4.05592 110.50165 33818 ft 454 kts 309°
2026-05-05 11:10 -4.01730 110.45164 33824 ft 454 kts 309°
2026-05-05 11:11 -3.97861 110.40162 33828 ft 454 kts 309°
2026-05-05 11:11 -3.93919 110.35221 33826 ft 454 kts 311°
2026-05-05 11:12 -3.89786 110.30447 33827 ft 453 kts 312°
2026-05-05 11:12 -3.85620 110.25708 33825 ft 454 kts 312°
2026-05-05 11:13 -3.81638 110.21106 34002 ft 442 kts 310°
2026-05-05 11:13 -3.77706 110.16501 33822 ft 426 kts 311°
2026-05-05 11:14 -3.73823 110.11965 33852 ft 435 kts 311°
2026-05-05 11:14 -3.69821 110.07312 33851 ft 447 kts 312°
2026-05-05 11:15 -3.65734 110.02558 33849 ft 452 kts 311°
2026-05-05 11:15 -3.61623 109.97771 33851 ft 454 kts 311°
2026-05-05 11:16 -3.57514 109.92984 33851 ft 454 kts 311°
2026-05-05 11:16 -3.53393 109.88189 33851 ft 454 kts 312°
2026-05-05 11:17 -3.49295 109.83424 33857 ft 455 kts 311°
2026-05-05 11:17 -3.45174 109.78619 33862 ft 455 kts 311°
2026-05-05 11:18 -3.41041 109.73814 33862 ft 456 kts 312°
2026-05-05 11:18 -3.36908 109.69008 33860 ft 455 kts 311°
2026-05-05 11:19 -3.32777 109.64213 33859 ft 455 kts 311°
2026-05-05 11:19 -3.29344 109.60223 33857 ft 455 kts 312°
2026-05-05 11:20 -3.25227 109.55421 33852 ft 455 kts 311°
2026-05-05 11:20 -3.21112 109.50621 33849 ft 455 kts 312°
2026-05-05 11:21 -3.16982 109.45824 33849 ft 455 kts 312°
2026-05-05 11:21 -3.12854 109.41036 33846 ft 454 kts 312°
2026-05-05 11:22 -3.08732 109.36238 33843 ft 455 kts 311°
2026-05-05 11:22 -3.04602 109.31439 33841 ft 455 kts 312°
2026-05-05 11:23 -3.00471 109.26639 33843 ft 455 kts 312°
2026-05-05 11:23 -2.96339 109.21838 33845 ft 456 kts 312°
2026-05-05 11:24 -2.92200 109.17031 33850 ft 456 kts 312°
2026-05-05 11:24 -2.88060 109.12226 33849 ft 456 kts 312°
2026-05-05 11:25 -2.83918 109.07431 33846 ft 455 kts 312°
2026-05-05 11:25 -2.79777 109.02646 33846 ft 455 kts 312°
2026-05-05 11:26 -2.75635 108.97863 33843 ft 455 kts 312°
2026-05-05 11:26 -2.71491 108.93075 33843 ft 455 kts 312°
2026-05-05 11:27 -2.67355 108.88284 33843 ft 455 kts 312°
2026-05-05 11:27 -2.63213 108.83500 33840 ft 455 kts 312°
2026-05-05 11:28 -2.59068 108.78711 33840 ft 456 kts 312°
2026-05-05 11:28 -2.54928 108.73918 33841 ft 455 kts 312°
2026-05-05 11:29 -2.50787 108.69135 33842 ft 455 kts 312°
2026-05-05 11:29 -2.46643 108.64347 33840 ft 455 kts 312°
2026-05-05 11:30 -2.42511 108.59555 33841 ft 455 kts 312°
2026-05-05 11:30 -2.38390 108.54755 33841 ft 455 kts 312°
2026-05-05 11:31 -2.34261 108.49960 33842 ft 455 kts 312°
2026-05-05 11:31 -2.30152 108.45202 33859 ft 455 kts 312°
2026-05-05 11:32 -2.26027 108.40400 33973 ft 455 kts 312°
2026-05-05 11:32 -2.21916 108.35584 34168 ft 455 kts 312°
2026-05-05 11:32 -2.19870 108.33172 34292 ft 455 kts 312°
2026-05-05 11:33 -2.17828 108.30758 34434 ft 454 kts 312°
2026-05-05 11:33 -2.15793 108.28345 34625 ft 454 kts 311°
2026-05-05 11:33 -2.13764 108.25930 34834 ft 453 kts 311°
2026-05-05 11:33 -2.11742 108.23511 35066 ft 452 kts 311°
2026-05-05 11:34 -2.09732 108.21092 35310 ft 451 kts 311°
2026-05-05 11:34 -2.07738 108.18678 35565 ft 450 kts 311°
2026-05-05 11:34 -2.05757 108.16267 35827 ft 447 kts 311°
2026-05-05 11:34 -2.03794 108.13866 36098 ft 445 kts 311°
2026-05-05 11:35 -2.01836 108.11483 36333 ft 443 kts 313°
2026-05-05 11:35 -1.99751 108.09222 36478 ft 442 kts 316°
2026-05-05 11:35 -1.97589 108.07036 36628 ft 442 kts 316°
2026-05-05 11:35 -1.95439 108.04849 36778 ft 442 kts 315°
2026-05-05 11:36 -1.93334 108.02608 36920 ft 442 kts 314°
2026-05-05 11:36 -1.91288 108.00317 37075 ft 442 kts 313°
2026-05-05 11:36 -1.89284 107.97987 37222 ft 442 kts 311°
2026-05-05 11:36 -1.87303 107.95640 37377 ft 442 kts 311°
2026-05-05 11:37 -1.85328 107.93290 37527 ft 441 kts 311°
2026-05-05 11:37 -1.83349 107.90950 37678 ft 440 kts 312°
2026-05-05 11:37 -1.81365 107.88630 37830 ft 439 kts 312°
2026-05-05 11:37 -1.79373 107.86318 37977 ft 438 kts 312°
2026-05-05 11:38 -1.77385 107.84020 38127 ft 437 kts 312°
2026-05-05 11:38 -1.75422 107.81757 38267 ft 436 kts 312°
2026-05-05 11:38 -1.73437 107.79464 38361 ft 436 kts 312°
2026-05-05 11:39 -1.69476 107.74868 38526 ft 437 kts 312°
2026-05-05 11:39 -1.65509 107.70266 38706 ft 437 kts 312°
2026-05-05 11:40 -1.61539 107.65660 38863 ft 438 kts 312°
2026-05-05 11:40 -1.57565 107.61048 38375 ft 437 kts 312°
2026-05-05 11:40 -1.55583 107.58753 37807 ft 436 kts 312°
2026-05-05 11:41 -1.53601 107.56460 37198 ft 436 kts 312°
2026-05-05 11:41 -1.51619 107.54168 36569 ft 436 kts 312°
2026-05-05 11:41 -1.49633 107.51868 35920 ft 437 kts 312°
2026-05-05 11:41 -1.47636 107.49576 35244 ft 438 kts 312°
2026-05-05 11:42 -1.45638 107.47268 34518 ft 440 kts 312°
2026-05-05 11:42 -1.43636 107.44946 33958 ft 442 kts 312°
2026-05-05 11:42 -1.41630 107.42610 33806 ft 443 kts 312°
2026-05-05 11:43 -1.37592 107.37912 33850 ft 447 kts 312°
2026-05-05 11:43 -1.33502 107.33216 33843 ft 448 kts 313°
2026-05-05 11:44 -1.29349 107.28555 33842 ft 450 kts 313°
2026-05-05 11:44 -1.25174 107.23892 33841 ft 451 kts 313°
2026-05-05 11:45 -1.21011 107.19207 33837 ft 451 kts 312°
2026-05-05 11:45 -1.16854 107.14505 33833 ft 452 kts 312°
2026-05-05 11:46 -1.12695 107.09802 33830 ft 452 kts 312°
2026-05-05 11:46 -1.08513 107.05095 33824 ft 453 kts 312°
2026-05-05 11:47 -1.04327 107.00383 33822 ft 454 kts 312°
2026-05-05 11:47 -1.00139 106.95656 33826 ft 454 kts 312°
2026-05-05 11:48 -0.93849 106.88571 33828 ft 455 kts 312°
2026-05-05 11:48 -0.89651 106.83837 33835 ft 455 kts 312°
2026-05-05 11:49 -0.85454 106.79094 33839 ft 456 kts 312°
2026-05-05 11:49 -0.81280 106.74388 33840 ft 455 kts 312°
2026-05-05 11:50 -0.77076 106.69657 33841 ft 455 kts 312°
2026-05-05 11:50 -0.72871 106.64924 33842 ft 455 kts 312°
2026-05-05 11:51 -0.68674 106.60191 33838 ft 455 kts 311°
2026-05-05 11:51 -0.64483 106.55458 33837 ft 455 kts 311°
2026-05-05 11:52 -0.60124 106.50886 33834 ft 454 kts 319°
2026-05-05 11:52 -0.55393 106.46697 33833 ft 454 kts 319°
2026-05-05 11:53 -0.50665 106.42505 33831 ft 455 kts 319°
2026-05-05 11:53 -0.45945 106.38305 33831 ft 455 kts 319°
2026-05-05 11:54 -0.41219 106.34105 33827 ft 455 kts 319°
2026-05-05 11:54 -0.36487 106.29902 33826 ft 455 kts 319°
2026-05-05 11:55 -0.31754 106.25704 33822 ft 455 kts 318°
2026-05-05 11:55 -0.27065 106.21533 33825 ft 454 kts 318°
2026-05-05 11:56 -0.22346 106.17332 33823 ft 454 kts 318°
2026-05-05 11:56 -0.17622 106.13141 33829 ft 455 kts 318°
2026-05-05 11:57 -0.12892 106.08945 33828 ft 455 kts 318°
2026-05-05 11:57 -0.08161 106.04742 33829 ft 455 kts 318°
2026-05-05 11:58 -0.03435 106.00539 33827 ft 455 kts 318°
2026-05-05 11:58 0.01289 105.96337 33828 ft 454 kts 318°
2026-05-05 11:59 0.06014 105.92137 33829 ft 455 kts 318°
2026-05-05 11:59 0.10740 105.87933 33827 ft 455 kts 318°
2026-05-05 12:00 0.15470 105.83730 33827 ft 455 kts 318°
2026-05-05 12:00 0.20204 105.79532 33825 ft 455 kts 319°
2026-05-05 12:01 0.24930 105.75337 33831 ft 455 kts 318°
2026-05-05 12:01 0.29657 105.71128 33830 ft 455 kts 318°
2026-05-05 12:02 0.34393 105.66924 33830 ft 455 kts 318°
2026-05-05 12:02 0.39125 105.62720 33828 ft 455 kts 319°
2026-05-05 12:03 0.43855 105.58516 33832 ft 455 kts 318°
2026-05-05 12:03 0.48588 105.54307 33834 ft 455 kts 319°
2026-05-05 12:04 0.53324 105.50108 33795 ft 456 kts 319°
2026-05-05 12:04 0.55703 105.47996 32967 ft 461 kts 319°
2026-05-05 12:04 0.58098 105.45862 32345 ft 459 kts 319°
2026-05-05 12:05 0.60474 105.43744 31797 ft 457 kts 319°
2026-05-05 12:05 0.62849 105.41655 31252 ft 453 kts 322°
2026-05-05 12:05 0.65438 105.39899 30714 ft 448 kts 332°
2026-05-05 12:05 0.67238 105.38899 30364 ft 446 kts 332°
2026-05-05 12:06 0.70842 105.36891 29661 ft 441 kts 331°
2026-05-05 12:06 0.73504 105.35399 29146 ft 437 kts 331°
2026-05-05 12:06 0.75252 105.34416 28813 ft 434 kts 331°
2026-05-05 12:06 0.78753 105.32446 28152 ft 429 kts 332°
2026-05-05 12:07 0.80471 105.31480 27837 ft 427 kts 332°
2026-05-05 12:07 0.83048 105.30032 27354 ft 423 kts 332°
2026-05-05 12:07 0.85599 105.28598 26886 ft 419 kts 332°
2026-05-05 12:07 0.88129 105.27175 26405 ft 415 kts 332°
2026-05-05 12:08 0.90639 105.25763 25939 ft 412 kts 332°
2026-05-05 12:08 0.93135 105.24361 25451 ft 410 kts 332°
2026-05-05 12:08 0.95612 105.22975 24976 ft 407 kts 332°
2026-05-05 12:08 0.98078 105.21594 24474 ft 405 kts 332°
2026-05-05 12:09 1.00529 105.20217 23977 ft 403 kts 332°
2026-05-05 12:09 1.02966 105.18845 23463 ft 401 kts 332°
2026-05-05 12:09 1.05395 105.17480 22958 ft 400 kts 332°
2026-05-05 12:09 1.07816 105.16118 22446 ft 398 kts 332°
2026-05-05 12:10 1.10225 105.14764 21945 ft 396 kts 332°
2026-05-05 12:10 1.12624 105.13419 21440 ft 395 kts 332°
2026-05-05 12:10 1.14870 105.11878 21206 ft 388 kts 317°
2026-05-05 12:10 1.16539 105.09816 21057 ft 376 kts 301°
2026-05-05 12:11 1.17522 105.07446 20506 ft 367 kts 283°
2026-05-05 12:11 1.17753 105.04929 19829 ft 363 kts 268°
2026-05-05 12:11 1.17676 105.02417 19222 ft 360 kts 269°
2026-05-05 12:11 1.17611 104.99963 18658 ft 357 kts 268°
2026-05-05 12:12 1.17552 104.97471 18193 ft 351 kts 269°
2026-05-05 12:12 1.17502 104.95081 17775 ft 348 kts 269°
2026-05-05 12:12 1.17456 104.92664 17335 ft 348 kts 269°
2026-05-05 12:12 1.17409 104.90224 16966 ft 345 kts 269°
2026-05-05 12:13 1.17359 104.87829 16578 ft 343 kts 269°
2026-05-05 12:13 1.17308 104.85479 16148 ft 343 kts 269°
2026-05-05 12:13 1.17254 104.83128 16020 ft 333 kts 269°
2026-05-05 12:13 1.17200 104.80842 15892 ft 324 kts 269°
2026-05-05 12:14 1.17151 104.78626 15758 ft 315 kts 269°
2026-05-05 12:14 1.17108 104.76470 15589 ft 305 kts 269°
2026-05-05 12:14 1.17062 104.74375 15262 ft 299 kts 269°
2026-05-05 12:14 1.17015 104.72313 14901 ft 295 kts 269°
2026-05-05 12:15 1.16968 104.70283 14599 ft 290 kts 269°
2026-05-05 12:15 1.16921 104.68275 14344 ft 288 kts 269°
2026-05-05 12:15 1.16875 104.66277 14102 ft 287 kts 269°
2026-05-05 12:15 1.16828 104.64286 13854 ft 286 kts 269°
2026-05-05 12:16 1.16781 104.62311 13613 ft 284 kts 269°
2026-05-05 12:16 1.16737 104.60341 13369 ft 283 kts 269°
2026-05-05 12:16 1.16697 104.58381 13127 ft 282 kts 269°
2026-05-05 12:16 1.16654 104.56428 12888 ft 281 kts 269°
2026-05-05 12:17 1.16608 104.54481 12647 ft 279 kts 269°
2026-05-05 12:17 1.16561 104.52547 12400 ft 278 kts 269°
2026-05-05 12:17 1.16516 104.50624 12180 ft 277 kts 269°
2026-05-05 12:17 1.16471 104.48704 11934 ft 276 kts 269°
2026-05-05 12:18 1.16466 104.46795 11696 ft 274 kts 276°
2026-05-05 12:18 1.16894 104.44951 11465 ft 272 kts 292°
2026-05-05 12:18 1.17811 104.43310 11231 ft 271 kts 305°
2026-05-05 12:18 1.18877 104.41757 10993 ft 271 kts 304°
2026-05-05 12:19 1.19934 104.40205 10765 ft 269 kts 304°
2026-05-05 12:19 1.20983 104.38661 10526 ft 268 kts 304°
2026-05-05 12:19 1.22026 104.37121 10275 ft 267 kts 304°
2026-05-05 12:19 1.23051 104.35609 10032 ft 266 kts 304°
2026-05-05 12:20 1.24086 104.34086 9865 ft 265 kts 304°
2026-05-05 12:20 1.25124 104.32563 9755 ft 266 kts 304°
2026-05-05 12:20 1.26160 104.31038 9552 ft 265 kts 304°
2026-05-05 12:20 1.27187 104.29522 9337 ft 263 kts 304°
2026-05-05 12:21 1.28212 104.28009 9115 ft 262 kts 304°
2026-05-05 12:21 1.29232 104.26503 8886 ft 261 kts 304°
2026-05-05 12:21 1.30248 104.25004 8661 ft 260 kts 303°
2026-05-05 12:21 1.31261 104.23513 8438 ft 259 kts 304°
2026-05-05 12:22 1.32407 104.22136 8214 ft 258 kts 320°
2026-05-05 12:22 1.33919 104.21193 7990 ft 257 kts 338°
2026-05-05 12:22 1.35636 104.20732 7761 ft 256 kts 348°
2026-05-05 12:22 1.37325 104.20378 7550 ft 255 kts 348°
2026-05-05 12:23 1.39060 104.20009 7330 ft 255 kts 348°
2026-05-05 12:23 1.40789 104.19640 7104 ft 254 kts 348°
2026-05-05 12:23 1.42506 104.19270 6886 ft 252 kts 347°
2026-05-05 12:23 1.44216 104.18902 6669 ft 252 kts 347°
2026-05-05 12:24 1.45926 104.18532 6448 ft 250 kts 347°
2026-05-05 12:24 1.47620 104.18167 6293 ft 246 kts 347°
2026-05-05 12:24 1.49292 104.17806 6190 ft 245 kts 347°
2026-05-05 12:24 1.50947 104.17451 5870 ft 243 kts 347°
2026-05-05 12:25 1.52528 104.16899 5518 ft 241 kts 328°
2026-05-05 12:25 1.53851 104.15887 5159 ft 240 kts 320°
2026-05-05 12:25 1.55137 104.14829 4816 ft 239 kts 320°
2026-05-05 12:25 1.56414 104.13780 4451 ft 237 kts 320°
2026-05-05 12:26 1.57693 104.12730 4096 ft 238 kts 320°
2026-05-05 12:26 1.58861 104.11744 3860 ft 232 kts 314°
2026-05-05 12:26 1.59635 104.10389 3696 ft 225 kts 280°
2026-05-05 12:26 1.59488 104.08879 3577 ft 222 kts 244°
2026-05-05 12:27 1.58493 104.07736 3494 ft 226 kts 208°
2026-05-05 12:27 1.57003 104.07163 3402 ft 235 kts 197°
2026-05-05 12:27 1.55521 104.06529 3453 ft 233 kts 205°
2026-05-05 12:27 1.54040 104.05841 3403 ft 236 kts 203°
2026-05-05 12:28 1.52551 104.05198 3166 ft 233 kts 201°
2026-05-05 12:28 1.51051 104.04565 2856 ft 236 kts 201°
2026-05-05 12:28 1.49563 104.03941 2563 ft 225 kts 203°
2026-05-05 12:28 1.48162 104.03348 2266 ft 213 kts 202°
2026-05-05 12:29 1.46833 104.02787 1999 ft 201 kts 202°
2026-05-05 12:29 1.45586 104.02259 1748 ft 188 kts 203°
2026-05-05 12:29 1.44426 104.01769 1476 ft 173 kts 203°
2026-05-05 12:29 1.43371 104.01324 1265 ft 159 kts 203°
2026-05-05 12:30 1.42360 104.00897 1059 ft 156 kts 204°
2026-05-05 12:30 1.41369 104.00478 852 ft 154 kts 204°
2026-05-05 12:30 1.40397 104.00068 656 ft 153 kts 204°
2026-05-05 12:30 1.39420 103.99655 452 ft 152 kts 204°
2026-05-05 12:31 1.38444 103.99245 253 ft 152 kts 203°
2026-05-05 12:31 1.37473 103.98837 68 ft 151 kts 202°
2026-05-05 12:31 1.36540 103.98448 24 ft 131 kts 203°
2026-05-05 12:31 1.35871 103.98163 24 ft 79 kts 202°
2026-05-05 12:32 1.35497 103.98007 24 ft 44 kts 202°
2026-05-05 12:32 1.35239 103.97896 24 ft 36 kts 203°
2026-05-05 12:32 1.35066 103.97823 24 ft 14 kts 201°
2026-05-05 12:32 1.35003 103.97859 24 ft 10 kts 118°
2026-05-05 12:33 1.34977 103.97920 24 ft 9 kts 110°
2026-05-05 12:33 1.34967 103.97951 26 ft 4 kts 108°
2026-05-05 12:33 1.34949 103.97973 24 ft 5 kts 170°
2026-05-05 12:33 1.34905 103.97949 26 ft 11 kts 208°
2026-05-05 12:34 1.34840 103.97951 25 ft 9 kts 138°
2026-05-05 12:34 1.34793 103.98045 24 ft 19 kts 112°
2026-05-05 12:34 1.34739 103.98175 25 ft 21 kts 113°
2026-05-05 12:34 1.34684 103.98303 24 ft 20 kts 113°
2026-05-05 12:35 1.34634 103.98419 27 ft 15 kts 113°
2026-05-05 12:35 1.34599 103.98500 24 ft 12 kts 113°
2026-05-05 12:35 1.34569 103.98571 24 ft 10 kts 113°
2026-05-05 12:35 1.34544 103.98631 24 ft 9 kts 112°
2026-05-05 12:36 1.34523 103.98682 24 ft 7 kts 112°
2026-05-05 12:36 1.34503 103.98731 24 ft 12 kts 112°
2026-05-05 12:36 1.34458 103.98838 24 ft 12 kts 113°
2026-05-05 12:36 1.34427 103.98911 24 ft 11 kts 114°
2026-05-05 12:37 1.34369 103.98927 24 ft 13 kts 199°
2026-05-05 12:37 1.34277 103.98889 24 ft 14 kts 202°
2026-05-05 12:37 1.34220 103.98865 24 ft 12 kts 203°
2026-05-05 12:37 1.34148 103.98835 26 ft 11 kts 203°
2026-05-05 12:38 1.34085 103.98809 24 ft 9 kts 202°
2026-05-05 12:38 1.34045 103.98774 24 ft 7 kts 259°
2026-05-05 12:38 1.34061 103.98729 24 ft 7 kts 294°
2026-05-05 12:38 1.34081 103.98684 25 ft 7 kts 294°
2026-05-05 12:39 1.34081 103.98641 24 ft 6 kts 235°
2026-05-05 12:39 1.34044 103.98620 26 ft 8 kts 204°
2026-05-05 12:39 1.34000 103.98601 26 ft 5 kts 204°
2026-05-05 12:39 1.33998 103.98582 24 ft 3 kts 287°
2026-05-05 12:40 1.34005 103.98563 25 ft 2 kts 292°
2026-05-05 12:40 1.34009 103.98553 24 ft 0 kts 292°